Showing default

CHINASAT 9A, 42763

Orbit data source: Space-Track

CHINASAT 9A, 42763 is a payload satellite owned by China Satcom (CN) in GEO that was launched on Sun, 18 Jun 2017 UTC via a CHANG ZHENG 3B launch vehicle from the Xichang Space Center, China (XSC). Payload-class satellites include a variety of spacecraft equipped with specific instruments for various scientific and technological missions. These include communications satellites like Starlink; space stations such as the ISS; scientific satellites like the Hubble; Earth observation satellites from companies like Planet Labs, Umbra, and HawkEye 360; GPS; miniature CubeSats for education and research; and military/defense satellites.

Not visible in the next 10 days
Identifier
42763, 2017-035A
Orbit
GEO
Country
Flag of CNCN / PRC
Related business
Manufacturer
CAST?
Mission
Non-operational Civil Communications
Bus & Motor
DFH-4?, DFH-4 LAE
Mass
~5,250 kg wet, ~2,500 kg dry
Launch date (UTC)
2017-06-18 (8 years ago)
Launch vehicle
CHANG ZHENG 3B
Launch site
Xichang Space Center, China (XSC)
Object type
Payload
Rocket body
Debris
Shape & HBR
Box + 2 Pan, 15.0 m
Radar Cross Section
34.063 m², Large (>1 m²)

Expand to show TLE details & history
Last TLE update: 18 hours ago

TLE from 18 hours ago
0 CHINASAT 9A
1 42763U 17035A   25257.59614495  .00000114  00000-0  00000-0 0  9998
2 42763   4.2715  78.6502 0000087  78.6353 105.1881  0.99778500 30909
Epoch: 2025-09-14T14:18Z
TLE epoch observation values (Epoch: 2025-09-14T14:18:26.923Z)
Latitude
-0.26577°
Longitude
54.03189°
Altitude
35,925.079 km
Speed
3.07 km/s
True Right ascension
17h 29m 49s
True Declination
0° 15' 56"
Sunlit
Object was in daylight at epoch
Visualization orbit readout
Latitude
Unknown
Longitude
Unknown
Altitude
Unknown
Speed
Unknown
Apparent Right ascension
Unknown
Apparent Declination
Unknown
Sunlit
N/A
Visualization observer readout
Local Sidereal Time
01:19:30
Azimuth
Unknown
Elevation
Unknown
Doppler factor
Unknown
Orbital elements
Apogee altitude
35,926.876 km
Perigee altitude
35,926.14 km
Semi-major axis
42,304.645 km
Eccentricity
0.00001
Inclination
4.2715°
RAAN
78.6502°
Arg. of periapsis
78.6353°
True anomaly
105.18906°
Mean anomaly
105.1881°
Eccentric anomaly
105.18858°
Mean motion
0.24944 °/min
Orbital period
1,443.25 mins
BSTAR
0
Loading maneuver chart data...
Computing Atmospheric mass density...
Loading historical data...
Loading historical data...
Loading historical data...
Loading historical data...
Loading historical data...
Loading historical data...
Loading historical data...
Other satellites on launch #35 in the year 2017 (2017-06-18 UTC)

Documentation

Showing up to 5 results
|